Time,TemperatureF,DewpointF,PressureIn,WindDirection,WindDirectionDegrees,WindSpeedMPH,WindSpeedGustMPH,Humidity,HourlyPrecipIn,Conditions,Clouds,dailyrainin,SolarRadiationWatts/m^2,SoftwareType,DateUTC
2013-10-18 00:03:00,41.0,38.0,-100.00,NW,311,5.0,12.0,89,0.00,,,0.00,0.000000,,2013-10-18 05:03:00,
2013-10-18 00:11:00,40.0,37.0,-100.00,NW,318,5.0,8.0,89,0.00,,,0.00,0.000000,,2013-10-18 05:11:00,
2013-10-18 00:43:00,40.0,37.0,-100.00,NW,318,5.0,8.0,89,0.00,,,0.00,0.000000,,2013-10-18 05:43:00,
2013-10-18 00:52:00,40.0,37.0,-100.00,NW,318,5.0,8.0,89,0.00,,,0.00,0.000000,,2013-10-18 05:52:00,
2013-10-18 01:02:00,40.0,37.0,-100.00,NW,318,5.0,8.0,89,0.00,,,0.00,0.000000,,2013-10-18 06:02:00,
2013-10-18 01:11:00,39.0,37.0,-100.00,NW,308,4.0,7.0,92,0.00,,,0.00,0.000000,,2013-10-18 06:11:00,
2013-10-18 01:42:00,39.0,37.0,-100.00,NW,308,4.0,7.0,92,0.00,,,0.00,0.000000,,2013-10-18 06:42:00,
2013-10-18 01:52:00,39.0,37.0,-100.00,NW,308,4.0,7.0,92,0.00,,,0.00,0.000000,,2013-10-18 06:52:00,
2013-10-18 02:02:00,39.0,37.0,-100.00,NW,308,4.0,7.0,92,0.00,,,0.00,0.000000,,2013-10-18 07:02:00,
2013-10-18 02:11:00,40.0,37.0,-100.00,NW,313,4.0,7.0,88,0.00,,,0.00,0.000000,,2013-10-18 07:11:00,
2013-10-18 02:42:00,40.0,37.0,-100.00,NW,313,4.0,7.0,88,0.00,,,0.00,0.000000,,2013-10-18 07:42:00,
2013-10-18 02:52:00,40.0,37.0,-100.00,NW,313,4.0,7.0,88,0.00,,,0.00,0.000000,,2013-10-18 07:52:00,
2013-10-18 03:02:00,40.0,37.0,-100.00,NW,313,4.0,7.0,88,0.00,,,0.00,0.000000,,2013-10-18 08:02:00,
2013-10-18 03:11:00,39.0,36.0,-100.00,NW,310,5.0,8.0,88,0.00,,,0.00,0.000000,,2013-10-18 08:11:00,
2013-10-18 03:42:00,39.0,36.0,-100.00,NW,310,5.0,8.0,88,0.00,,,0.00,0.000000,,2013-10-18 08:42:00,
2013-10-18 03:52:00,39.0,36.0,-100.00,NW,310,5.0,8.0,88,0.00,,,0.00,0.000000,,2013-10-18 08:52:00,
2013-10-18 04:02:00,39.0,36.0,-100.00,NW,310,5.0,8.0,88,0.00,,,0.00,0.000000,,2013-10-18 09:02:00,
2013-10-18 04:11:00,36.0,32.0,-100.00,NW,313,5.0,10.0,86,0.00,,,0.00,0.000000,,2013-10-18 09:11:00,
2013-10-18 04:43:00,36.0,32.0,-100.00,NW,313,5.0,10.0,86,0.00,,,0.00,0.000000,,2013-10-18 09:43:00,
2013-10-18 04:53:00,36.0,32.0,-100.00,NW,313,5.0,10.0,86,0.00,,,0.00,0.000000,,2013-10-18 09:53:00,
2013-10-18 05:03:00,36.0,32.0,-100.00,NW,313,5.0,10.0,86,0.00,,,0.00,0.000000,,2013-10-18 10:03:00,
2013-10-18 05:11:00,33.0,31.0,-100.00,NW,318,5.0,8.0,94,0.00,,,0.00,0.000000,,2013-10-18 10:11:00,
2013-10-18 05:43:00,33.0,31.0,-100.00,NW,318,5.0,8.0,94,0.00,,,0.00,0.000000,,2013-10-18 10:43:00,
2013-10-18 05:53:00,33.0,31.0,-100.00,NW,318,5.0,8.0,94,0.00,,,0.00,0.000000,,2013-10-18 10:53:00,
2013-10-18 06:03:00,33.0,31.0,-100.00,NW,318,5.0,8.0,94,0.00,,,0.00,0.000000,,2013-10-18 11:03:00,
2013-10-18 06:11:00,31.0,30.0,-100.00,NNW,346,2.0,7.0,96,0.00,,,0.00,0.000000,,2013-10-18 11:11:00,
2013-10-18 06:42:00,31.0,30.0,-100.00,NNW,346,2.0,7.0,96,0.00,,,0.00,0.000000,,2013-10-18 11:42:00,
2013-10-18 06:52:00,31.0,30.0,-100.00,NNW,346,2.0,7.0,96,0.00,,,0.00,0.000000,,2013-10-18 11:52:00,
2013-10-18 07:02:00,31.0,30.0,-100.00,NNW,346,2.0,7.0,96,0.00,,,0.00,0.000000,,2013-10-18 12:02:00,
2013-10-18 07:11:00,32.0,30.0,-100.00,NW,326,5.0,9.0,94,0.00,,,0.00,0.000000,,2013-10-18 12:11:00,
2013-10-18 07:42:00,32.0,30.0,-100.00,NW,326,5.0,9.0,94,0.00,,,0.00,0.000000,,2013-10-18 12:42:00,
2013-10-18 07:52:00,32.0,30.0,-100.00,NW,326,5.0,9.0,94,0.00,,,0.00,0.000000,,2013-10-18 12:52:00,
2013-10-18 08:01:00,32.0,30.0,-100.00,NW,326,5.0,9.0,94,0.00,,,0.00,0.000000,,2013-10-18 13:01:00,
2013-10-18 08:11:00,30.0,29.0,-100.00,SSW,204,1.0,6.0,98,0.00,,,0.00,4.000000,,2013-10-18 13:11:00,
2013-10-18 08:42:00,30.0,29.0,-100.00,SSW,204,1.0,6.0,98,0.00,,,0.00,4.000000,,2013-10-18 13:42:00,
2013-10-18 08:52:00,30.0,29.0,-100.00,SSW,204,1.0,6.0,98,0.00,,,0.00,4.000000,,2013-10-18 13:52:00,
2013-10-18 09:02:00,30.0,29.0,-100.00,SSW,204,1.0,6.0,98,0.00,,,0.00,4.000000,,2013-10-18 14:02:00,
2013-10-18 09:11:00,35.0,33.0,-100.00,WSW,255,3.0,6.0,93,0.00,,,0.00,56.000000,,2013-10-18 14:11:00,
2013-10-18 09:42:00,35.0,33.0,-100.00,WSW,255,3.0,6.0,93,0.00,,,0.00,56.000000,,2013-10-18 14:42:00,
2013-10-18 09:52:00,35.0,33.0,-100.00,WSW,255,3.0,6.0,93,0.00,,,0.00,56.000000,,2013-10-18 14:52:00,
2013-10-18 10:02:00,35.0,33.0,-100.00,WSW,255,3.0,6.0,93,0.00,,,0.00,56.000000,,2013-10-18 15:02:00,
2013-10-18 10:11:00,39.0,35.0,-100.00,NW,306,6.0,10.0,84,0.00,,,0.00,167.000000,,2013-10-18 15:11:00,
2013-10-18 10:43:00,39.0,35.0,-100.00,NW,306,6.0,10.0,84,0.00,,,0.00,167.000000,,2013-10-18 15:43:00,
2013-10-18 10:54:00,39.0,35.0,-100.00,NW,306,6.0,10.0,84,0.00,,,0.00,167.000000,,2013-10-18 15:54:00,
2013-10-18 11:04:00,39.0,35.0,-100.00,NW,306,6.0,10.0,84,0.00,,,0.00,167.000000,,2013-10-18 16:04:00,
2013-10-18 11:11:00,46.0,35.0,-100.00,NW,307,7.0,13.0,65,0.00,,,0.00,363.000000,,2013-10-18 16:11:00,
2013-10-18 11:42:00,46.0,35.0,-100.00,NW,307,7.0,13.0,65,0.00,,,0.00,363.000000,,2013-10-18 16:42:00,
2013-10-18 11:53:00,46.0,35.0,-100.00,NW,307,7.0,13.0,65,0.00,,,0.00,363.000000,,2013-10-18 16:53:00,
2013-10-18 12:03:00,46.0,35.0,-100.00,NW,307,7.0,13.0,65,0.00,,,0.00,363.000000,,2013-10-18 17:03:00,
2013-10-18 12:11:00,50.0,34.0,-100.00,WNW,301,6.0,12.0,53,0.00,,,0.00,485.000000,,2013-10-18 17:11:00,
2013-10-18 12:42:00,50.0,34.0,-100.00,WNW,301,6.0,12.0,53,0.00,,,0.00,485.000000,,2013-10-18 17:42:00,
2013-10-18 12:52:00,50.0,34.0,-100.00,WNW,301,6.0,12.0,53,0.00,,,0.00,485.000000,,2013-10-18 17:52:00,
2013-10-18 13:02:00,50.0,34.0,-100.00,WNW,301,6.0,12.0,53,0.00,,,0.00,485.000000,,2013-10-18 18:02:00,
2013-10-18 13:11:00,52.0,31.0,-100.00,WNW,299,7.0,14.0,45,0.00,,,0.00,540.000000,,2013-10-18 18:11:00,
2013-10-18 13:42:00,52.0,31.0,-100.00,WNW,299,7.0,14.0,45,0.00,,,0.00,540.000000,,2013-10-18 18:42:00,
2013-10-18 13:52:00,52.0,31.0,-100.00,WNW,299,7.0,14.0,45,0.00,,,0.00,540.000000,,2013-10-18 18:52:00,
2013-10-18 14:01:00,52.0,31.0,-100.00,WNW,299,7.0,14.0,45,0.00,,,0.00,540.000000,,2013-10-18 19:01:00,
2013-10-18 14:11:00,54.0,29.0,-100.00,WNW,282,8.0,16.0,38,0.00,,,0.00,582.000000,,2013-10-18 19:11:00,
2013-10-18 14:42:00,54.0,29.0,-100.00,WNW,282,8.0,16.0,38,0.00,,,0.00,582.000000,,2013-10-18 19:42:00,
2013-10-18 14:52:00,54.0,29.0,-100.00,WNW,282,8.0,16.0,38,0.00,,,0.00,582.000000,,2013-10-18 19:52:00,
2013-10-18 15:02:00,54.0,29.0,-100.00,WNW,282,8.0,16.0,38,0.00,,,0.00,582.000000,,2013-10-18 20:02:00,
2013-10-18 15:11:00,51.0,28.0,-100.00,WNW,303,6.0,14.0,40,0.00,,,0.00,338.000000,,2013-10-18 20:11:00,
2013-10-18 15:42:00,51.0,28.0,-100.00,WNW,303,6.0,14.0,40,0.00,,,0.00,338.000000,,2013-10-18 20:42:00,
2013-10-18 15:52:00,51.0,28.0,-100.00,WNW,303,6.0,14.0,40,0.00,,,0.00,338.000000,,2013-10-18 20:52:00,
2013-10-18 16:02:00,51.0,28.0,-100.00,WNW,303,6.0,14.0,40,0.00,,,0.00,338.000000,,2013-10-18 21:02:00,
2013-10-18 16:11:00,50.0,28.0,-100.00,WNW,295,5.0,12.0,43,0.00,,,0.00,169.000000,,2013-10-18 21:11:00,
2013-10-18 16:45:00,50.0,28.0,-100.00,WNW,295,5.0,12.0,43,0.00,,,0.00,169.000000,,2013-10-18 21:45:00,
2013-10-18 16:54:00,50.0,28.0,-100.00,WNW,295,5.0,12.0,43,0.00,,,0.00,169.000000,,2013-10-18 21:54:00,
2013-10-18 17:04:00,50.0,28.0,-100.00,WNW,295,5.0,12.0,43,0.00,,,0.00,169.000000,,2013-10-18 22:04:00,
2013-10-18 17:11:00,54.0,29.0,-100.00,WSW,256,8.0,13.0,38,0.00,,,0.00,271.000000,,2013-10-18 22:11:00,
2013-10-18 17:43:00,54.0,29.0,-100.00,WSW,256,8.0,13.0,38,0.00,,,0.00,271.000000,,2013-10-18 22:43:00,
2013-10-18 17:54:00,54.0,29.0,-100.00,WSW,256,8.0,13.0,38,0.00,,,0.00,271.000000,,2013-10-18 22:54:00,
2013-10-18 18:03:00,54.0,29.0,-100.00,WSW,256,8.0,13.0,38,0.00,,,0.00,271.000000,,2013-10-18 23:03:00,
2013-10-18 18:11:00,48.0,30.0,-100.00,WSW,249,5.0,14.0,50,0.00,,,0.00,46.000000,,2013-10-18 23:11:00,
2013-10-18 18:43:00,48.0,30.0,-100.00,WSW,249,5.0,14.0,50,0.00,,,0.00,46.000000,,2013-10-18 23:43:00,
2013-10-18 18:53:00,48.0,30.0,-100.00,WSW,249,5.0,14.0,50,0.00,,,0.00,46.000000,,2013-10-18 23:53:00,
2013-10-18 19:02:00,48.0,30.0,-100.00,WSW,249,5.0,14.0,50,0.00,,,0.00,46.000000,,2013-10-19 00:02:00,
2013-10-18 19:11:00,42.0,38.0,-100.00,NW,325,2.0,20.0,84,0.00,,,0.00,1.000000,,2013-10-19 00:11:00,
2013-10-18 19:52:00,42.0,38.0,-100.00,NW,325,2.0,20.0,84,0.00,,,0.00,1.000000,,2013-10-19 00:52:00,
2013-10-18 20:02:00,42.0,38.0,-100.00,NW,325,2.0,20.0,84,0.00,,,0.00,1.000000,,2013-10-19 01:02:00,
2013-10-18 20:11:00,42.0,39.0,-100.00,West,273,2.0,8.0,90,0.00,,,0.00,0.000000,,2013-10-19 01:11:00,
2013-10-18 20:42:00,42.0,39.0,-100.00,West,273,2.0,8.0,90,0.00,,,0.00,0.000000,,2013-10-19 01:42:00,
2013-10-18 20:53:00,42.0,39.0,-100.00,West,273,2.0,8.0,90,0.00,,,0.00,0.000000,,2013-10-19 01:53:00,
2013-10-18 21:02:00,42.0,39.0,-100.00,West,273,2.0,8.0,90,0.00,,,0.00,0.000000,,2013-10-19 02:02:00,
2013-10-18 22:11:00,33.0,33.0,-100.00,NNE,28,1.0,4.0,100,0.00,,,0.00,0.000000,,2013-10-19 03:11:00,
2013-10-18 23:11:00,34.0,34.0,-100.00,North,2,2.0,4.0,100,0.00,,,0.00,0.000000,,2013-10-19 04:11:00,
2013-10-18 23:44:00,34.0,34.0,-100.00,North,2,2.0,4.0,100,0.00,,,0.00,0.000000,,2013-10-19 04:44:00,
2013-10-18 23:54:00,34.0,34.0,-100.00,North,2,2.0,4.0,100,0.00,,,0.00,0.000000,,2013-10-19 04:54:00,